This is the latest recevied weather packets stored in our database for station/object N2XGL-1. If no packets are shown the sender has not sent any weather packets the latest 1 day(s).
| Time | Temp. | Humidity | Pressure | Rain* | Wind** | Luminosity | Snow |
|---|---|---|---|---|---|---|---|
| 1836274566 | 17.22° C | 61% | 1011.5 hPa | 0 mm | 0.45 m/s, 0° | - | - |
| 1836274297 | 17.22° C | 61% | 1011.5 hPa | 0 mm | 0.45 m/s, 0° | - | - |
| 1836274137 | 17.22° C | 62% | 1011.8 hPa | 0 mm | 0 m/s | - | - |
| 1778027589 | 0.56° C | 94% | 1012.5 hPa | 0.25 mm | 0.89 m/s, 338° | - | - |
| 1778027541 | 0.56° C | 94% | 1012.5 hPa | 0.25 mm | 0.89 m/s, 338° | - | - |
| 1778026953 | 0.56° C | 94% | 1012.4 hPa | 0 mm | 0.45 m/s, 0° | - | - |
| 1778026458 | 0.56° C | 94% | 1012.3 hPa | 0 mm | 0.89 m/s, 315° | - | - |
| 1778025938 | 0.56° C | 94% | 1012.3 hPa | 0 mm | 0.45 m/s, 292° | - | - |
| 1778025365 | 0.56° C | 94% | 1012.1 hPa | 0 mm | 0.45 m/s, 0° | - | - |
| 1778024813 | 0.56° C | 94% | 1011.9 hPa | 0 mm | 0.45 m/s, 315° | - | - |
| 1778024298 | 0.56° C | 94% | 1011.7 hPa | 0 mm | 0.89 m/s, 0° | - | - |
| 1778023705 | 0.56° C | 94% | 1011.6 hPa | 0 mm | 0.89 m/s, 0° | - | - |
| 1778023119 | 0.56° C | 94% | 1012 hPa | 0 mm | 1.34 m/s, 338° | - | - |
| 1778022598 | 0.56° C | 94% | 1011.6 hPa | 0.25 mm | 0.89 m/s, 0° | - | - |
| 1778022018 | 0.56° C | 94% | 1011.8 hPa | 0.25 mm | 0.89 m/s, 338° | - | - |
| 1778021486 | 0.56° C | 93% | 1011.8 hPa | 0.25 mm | 1.34 m/s, 338° | - | - |
| 1778020998 | 0.56° C | 93% | 1011.6 hPa | 0.25 mm | 1.34 m/s, 0° | - | - |
| 1778020419 | 0.56° C | 93% | 1011 hPa | 0.25 mm | 1.34 m/s, 338° | - | - |
| 1778019871 | 0.56° C | 93% | 1010.9 hPa | 0.25 mm | 2.24 m/s, 0° | - | - |
| 1778019374 | 0.56° C | 93% | 1011 hPa | 0.25 mm | 3.13 m/s, 0° | - | - |
| 1778018793 | 1.11° C | 93% | 1010.7 hPa | 0.25 mm | 2.68 m/s, 0° | - | - |
| 1778018218 | 1.11° C | 93% | 1010.6 hPa | 0.51 mm | 1.79 m/s, 0° | - | - |
| 1778017668 | 1.67° C | 93% | 1010.4 hPa | 1.02 mm | 3.13 m/s, 0° | - | - |
| 1778017141 | 1.67° C | 93% | 1010.2 hPa | 1.27 mm | 2.68 m/s, 0° | - | - |
| 1778016033 | 1.67° C | 93% | 1010.1 hPa | 1.78 mm | 2.24 m/s, 0° | - | - |
* Rain latest hour (hover to see other rain measurements)
** Current wind speed in m/s (hover to see current wind gust speed)